Portada
METAR-TAF:

METAR-TAF

Aeroports :

Illa Lavan, Iran

latitud: 26-48-37N, longitud: 53-21-22E, altitud: 23 m

Observació

L'informe es va fer fa 1 hora i 7 minuts, a les 15:00 UTC
Vent 10 kt del Nord-Oest
Temperatura 26°C
Humitat 58%
Pressió 1013 hPa
Visibilitat: 8000 m

METAR: OIBV 011500Z 31010KT 8000 NSC 26/17 Q1013

Hora: 19:37 (16:07 UTC)


TAF: manca

Observacions i pronòstics meteorològics de més de 4000 aeroports (METAR i TAF).

Les estacions disponibles són els punts grocs i vermells al mapa.

Posi el ratolí al punt desitjat per veure el nom de l'estació.

Feu clic per veure les observacions i els pronòstics meteorològics.

Per canviar el mapa: feu clic els botons verds amb una creu de color negre per apropar; al botó verd amb un guió per allunyar la imatge; o en les fletxes verdes per a mapes adjacents.


METAR-TAF: